Tracking 23446 objects as of 19-Jun-2021
HD Live streaming from Space Station
objects crossing your sky now

COSMOS 1285 DEB

Track COSMOS 1285 DEB now!


NORAD ID: 27801
Int'l Code: 1981-071Q
Perigee: 3,250.9 km
Apogee: 37,587.9 km
Inclination: 64.4 °
Period: 727.3 minutes
Semi major axis: 26790 km
RCS: 0.1262 m2 (medium)
Launch date: August 4, 1981
Source: Commonwealth of Independent States (former USSR) (CIS)
Launch site: PLESETSK MISSILE AND SPACE COMPLEX (PKMTR)

Note: This is SATELLITE DEBRIS
aabbcc
Your satellite tracking list
Your tracking list is empty




NASA's NSSDC Master Catalog

Two Line Element Set (TLE):
1 27801U 81071Q   21164.44528561 -.00000285  00000-0  00000+0 0  9999
2 27801  64.4110 235.7423 6408461  47.8039 349.5499  1.97986085147415
Source of the keplerian elements: AFSPC